{"data":{"norad_id":61959,"intl_designator":"2024-210A","name":"STARLINK-32499","alt_names":[],"object_type":"PAYLOAD","status":"ACTIVE","operator":null,"country":"US","launch_date":"2024-11-14","launch_site_code":"AFETR","launch_vehicle":null,"mission":null,"orbit_class":"UNKNOWN","rcs_meters":null,"size_class":null,"mass_kg":null,"dimensions":null,"purposes":["comms"],"wikipedia_slug":null,"has_3d_model":false,"image_url":null,"decayed_at":null,"tle_current":{"epoch":"2026-09-21T09:14:14.403552Z","epoch_age_seconds":109190,"freshness":"FRESH","line1":"1 61959U 24210A   26264.38488893  .00009003  00000+0  33626-3 0  9994","line2":"2 61959  42.9997 154.2404 0001718 273.9775  86.0880 15.27583275104852","mean_motion":15.27583275,"eccentricity":0.0001718,"inclination_deg":42.9997,"raan_deg":154.2404,"arg_perigee_deg":273.9775,"mean_anomaly_deg":86.088,"bstar":0.00033626,"rev_number":10485,"period_min":94.266546614292,"perigee_km":481.86053944246,"apogee_km":484.21803961554,"semimajor_km":6861.176289529,"source":"CELESTRAK","updated_at":"2026-09-22T09:00:49.457862Z"}}}